DELTA 1 DEB, 19360

Orbit data source: Space-Track

DELTA 1 DEB, 19360 is space debris in SSO originally from a launch on Tue, 06 Nov 1973 UTC launched from the Air Force Western Test Range (AFWTR). Debris objects in space refer to the collection of defunct objects orbiting the Earth. Examples of debris include non-operational satellites, rocket bodies, and fragments generated from explosions, collisions, or faulty payload assembly.

Loading next visibility...
Identifier
19360, 1973-086HE
Orbit
SSO
Country
Flag of USUS
Related business
Manufacturer
Unknown
Mission
Spacecraft
Bus & Motor
Unknown
Mass
Unknown
Launch date (UTC)
1973-11-06 (53 years ago)
Launch vehicle
Unknown
Launch site
Air Force Western Test Range (AFWTR)
Object type
Payload
Rocket body
Debris
Shape & HBR
Unknown shape, 0.1 m
Radar Cross Section
Medium (>0.1 m² and <1 m²)

Expand to show TLE details & history
Last TLE update: 9 hours ago

TLE from 9 hours ago
0 DELTA 1 DEB
1 19360U 73086HE  26221.70594463  .00000754  00000-0  47638-2 0  9990
2 19360 101.8899 300.7379 0044636  27.6472 127.2272 12.57266460886551
Epoch: 2026-08-09T16:56Z
TLE epoch observation values (Epoch: 2026-08-09T16:56:33.616Z)
Latitude
24.18002°
Longitude
-86.20335°
Altitude
1,458.072 km
Speed
7.126 km/s
True Right ascension
08h 24m 32s
True Declination
24° 03' 48"
Sunlit
Object was in daylight at epoch
Visualization orbit readout
Latitude
Unknown
Longitude
Unknown
Altitude
Unknown
Speed
Unknown
Apparent Right ascension
Unknown
Apparent Declination
Unknown
Sunlit
N/A
Visualization observer readout
Local Sidereal Time
16:37:53
Azimuth
Unknown
Elevation
Unknown
Doppler factor
Unknown
Orbital elements
Apogee altitude
1,466.654 km
Perigee altitude
1,396.933 km
Semi-major axis
7,809.93 km
Eccentricity
0.00446
Inclination
101.8899°
RAAN
300.7379°
Arg. of periapsis
27.6472°
True anomaly
127.6331°
Mean anomaly
127.2272°
Eccentric anomaly
127.43029°
Mean motion
3.14465 °/min
Orbital period
114.48 mins
BSTAR
0.0047638
Loading maneuver chart data...
Computing Atmospheric mass density...
Loading historical data...
Loading historical data...
Loading historical data...
Loading historical data...
Loading historical data...
Loading historical data...
Loading historical data...

Documentation

Showing up to 5 results
|